www.pogodaiklimat.ru

Погода и климат >> Архив погоды >> Индонезия >> Kupang


ПОГОДА в Kupang

  • Прогноз погоды в Kupang
  • Монитор погоды в Kupang
  • Климат города

АРХИВ ПОГОДЫ в Kupang

Время (UTC), дата Ветер
(напр.,м/с)
 
Видим.   Явления Облачность Т
(С)
Тd
(С)
f
(%)
Тe
(С)
Тes
(С)
Комфортность P
(гПа)
Po
(гПа)
Тmin
(С)
Tmax
(С)
R
(мм)
R24
(мм)
S
(см)
00 11.11 СЗ 2 10 км 4/3 500 м
[Cu Sc Ci fib]
+29.6 +26.1 82 +45 +50 опасность
перегрева
1010.7 998.6 +25.8 2
03 11.11 З 4 9000 м слабый дождь 8/6 480 м
[Cb cap Ci]
+32.2 +26.9 74 +50 +55 опасность
перегрева
1009.5 997.3 0.0
06 11.11 З 5 10 км сильная гроза, ливневой дождь 8/8 420 м
[Cb cap Ci fib]
+30.1 +26.8 83 +47 +49 опасность
перегрева
1007.6 994.8 8
09 11.11 ЮЗ 1 10 км {гроза, дождь} 9/9 420 м
[Cb cap Ci sp]
+25.6 +24.2 92 +35 +36 очень
душно
1009.0 996.8 17
12 11.11 ЮВ 2 8000 м в посл. час гроза {дождь} 8/6 500 м
[Cu med, cong As op Ci fib]
+26.1 +24.7 92 +37 +37 очень
душно
1010.6 998.4 +34.2 17
15 11.11 СВ 1 8000 м 6/4 500 м
[Cu med, cong As op Ci fib]
+26.0 +24.9 94 +37 +37 очень
душно
1010.7 998.5
18 11.11 Ю 1 8000 м 6/4 500 м
[Cu med, cong As op Ci fib]
+25.4 +24.4 94 +35 +35 очень
душно
1009.4 997.2
21 11.11 ЮВ 1 8000 м 4/3 500 м
[Cu hum Ci fib]
+24.3 +23.5 95 +33 +33 очень
душно
1010.1 998.0
00 12.11 СЗ 2 10 км 5/4 540 м
[Cu hum Ci fib]
+28.4 +25.4 84 +42 +46 опасность
перегрева
1011.7 999.5 +24.0 24
03 12.11 СЗ 3 10 км 5/5 500 м
[Cu hum Ci fib]
+32.6 +26.7 71 +50 +58 опасность
перегрева
1009.4 997.7
06 12.11 Ю 4 8000 м слабый дождь 8/8 450 м
[Cb cap Ci fib]
+26.8 +24.3 86 +37 +40 очень
душно
1007.6 995.4
09 12.11 З 1 8000 м осадки на расстоянии {гроза, дождь} 10/9 450 м
[Cb cap Ci fib]
+28.0 +25.6 87 +41 +42 опасность
перегрева
1008.0 995.9 0.0
12 12.11 ЮВ 1 8000 м {гроза, дождь} 5/4 540 м
[Cu hum Ac trans Ci fib]
+27.0 +26.2 95 +41 +41 опасность
перегрева
1009.9 997.7 +33.0 0.0
15 12.11 В 1 8000 м 5/3 540 м
[Cu hum Ci fib]
+26.4 +25.5 95 +39 +39 очень
душно
1010.2 998.0
18 12.11 Ю 2 8000 м 5/3 540 м
[Cu hum Ci fib]
+25.6 +24.5 94 +36 +36 очень
душно
1009.2 997.0
21 12.11 Ю 1 8000 м 4/4 480 м
[Cb cap Ci fib]
+25.0 +24.5 97 +35 +35 очень
душно
1009.8 997.6
00 13.11 В 4 10 км 4/3 500 м
[Cu hum Ci fib]
+29.6 +25.3 78 +43 +47 опасность
перегрева
1011.1 998.9 +24.8 9
03 13.11 СЗ 3 10 км 5/4 480 м
[Cu med, cong Ci fib]
+32.7 +27.5 74 +52 +62 опасность
перегрева
1009.1 997.0
06 13.11 Ю 9 10 км 6/5 500 м
[Cu med, cong Ac trans Ci fib]
+33.5 +26.8 68 +51 +52 опасность
перегрева
1006.5 994.3
09 13.11 В 2 8000 м {гроза, дождь} 9/6 500 м
[Cu med, cong As trans Ci sp]
+29.4 +26.6 85 +45 +46 опасность
перегрева
1007.2 995.0 0.0
12 13.11 ЮВ 2 8000 м {гроза, дождь} 6/4 500 м
[Cu med, cong Ac trans Ci fib]
+28.0 +25.9 88 +42 +42 опасность
перегрева
1009.5 997.3 +34.2 0.0
15 13.11 ЮВ 5 7000 м гроза, ливневой дождь 9/8 450 м
[Cb cap Ac trans Ci fib]
+25.2 +24.7 97 +35 +35 очень
душно
1010.2 998.0 7
18 13.11 ЮВ 3 7000 м гроза, ливневой дождь 10/9 450 м
[Cb cap Ac trans Ci fib]
+24.8 +23.7 94 +34 +34 очень
душно
1008.5 996.2 1
21 13.11 Ю 1 8000 м {гроза, дождь} 6/6 500 м
[Cu hum Ac As Ci fib]
+25.2 +24.1 94 +35 +35 очень
душно
1009.7 997.5 0.0
00 14.11 ЮВ 4 10 км {гроза, дождь} 3/1 600 м
[Cu hum Ci sp]
+30.2 +24.2 70 +42 +46 опасность
перегрева
1011.2 999.0 +24.4 8
03 14.11 СЗ 3 10 км 4/4 480 м
[Cu med, cong Ci fib]
+33.2 +26.6 68 +50 +60 опасность
перегрева
1010.1 997.9
06 14.11 СЗ 4 10 км 5/4 500 м
[Cu med, cong Ci fib]
+32.2 +27.8 78 +52 +59 опасность
перегрева
1008.4 996.2
09 14.11 СЗ 2 10 км 4/4 500 м
[Cu med, cong Ci fib]
+30.7 +26.6 79 +47 +48 опасность
перегрева
1008.5 996.4
12 14.11 В 2 8000 м 5/3 540 м
[Cu hum Ci sp]
+28.0 +24.5 81 +39 +39 очень
душно
1010.9 998.7 +33.5
15 14.11 ЮВ 2 8000 м 6/5 500 м
[Cu hum Ci sp]
+28.0 +25.3 85 +41 +41 опасность
перегрева
1011.2 999.0
18 14.11 Ю 1 8000 м 5/4 540 м
[Cu hum Ci sp]
+27.2 +24.9 87 +39 +39 очень
душно
1009.8 997.6
21 14.11 ЮЗ 1 8000 м 5/1 540 м
[Cu hum Ci sp]
+25.8 +24.1 90 +36 +36 очень
душно
1011.3 999.1
00 15.11 В 3 10 км 4/1 570 м
[Cu med, cong Ci fib]
+30.4 +25.0 73 +44 +49 опасность
перегрева
1013.0 1000.8 +26.0
03 15.11 В 4 10 км 5/3 500 м
[Cu med, cong Ac As Ci fib]
+34.2 +26.3 64 +51 +60 опасность
перегрева
1011.7 999.5
06 15.11 ЮВ 9 10 км в посл. час гроза 8/5 480 м
[Cb cap Ac As Ci fib]
+33.4 +25.4 63 +48 +48 опасность
перегрева
1009.7 997.5
09 15.11 ЮВ 5 10 км {гроза} 6/4 540 м
[Cu med, cong As trans Ci fib]
+30.6 +25.8 76 +46 +46 опасность
перегрева
1009.4 997.3
12 15.11 В 2 8000 м {гроза} 4/3 540 м
[Cu hum As op Ci fib]
+28.8 +26.1 85 +43 +43 опасность
перегрева
1011.7 999.5 +35.0
15 15.11 ЮВ 1 8000 м 4/1 540 м
[Cu hum Ci fib]
+27.8 +25.8 89 +41 +41 опасность
перегрева
1011.3 999.1
18 15.11 ЮВ 2 8000 м 1/1 600 м
[Cu hum Ci fib]
+26.5 +24.5 89 +37 +37 очень
душно
1010.3 998.2
21 15.11 ЮВ 1 8000 м 1/1 600 м
[Cu hum Ci fib]
+25.8 +24.6 93 +36 +36 очень
душно
1011.3 999.1
00 16.11 СЗ 2 10 км 4/1 500 м
[Cu hum Ci fib]
+29.1 +25.1 79 +42 +48 опасность
перегрева
1012.4 1000.2 +25.4
03 16.11 СЗ 7 10 км 5/4 540 м
[Cu med, cong Ci fib]
+32.6 +26.7 71 +50 +54 опасность
перегрева
1011.3 999.1
06 16.11 СЗ 3 10 км {гроза, дождь} 6/6 500 м
[Cu med, cong Ci fib]
+32.0 +28.4 81 +53 +58 опасность
перегрева
1009.2 997.0 2
09 16.11 Ю 5 10 км 6/6 480 м
[Cu med, cong Ci fib]
+31.7 +26.1 72 +47 +48 опасность
перегрева
1008.9 996.7
12 16.11 ЮВ 2 8000 м 3/1 600 м
[Cu hum Ci fib]
+28.6 +25.9 85 +43 +43 опасность
перегрева
1011.1 998.9 +32.8
15 16.11 В 2 8000 м 3/1 600 м
[Cu hum Ac trans Ci fib]
+27.4 +26.1 93 +41 +41 опасность
перегрева
1011.6 998.5
18 16.11 ЮВ 2 8000 м 3/1 600 м
[Cu hum Ac trans Ci fib]
+27.0 +24.5 86 +38 +38 очень
душно
1010.3 998.1
21 16.11 В 2 8000 м 5/1 600 м
[Cu hum Ci fib]
+25.8 +24.7 94 +37 +37 очень
душно
1010.8 997.6
00 17.11 СЗ 3 10 км 5/1 600 м
[Cu hum Ci fib]
+29.2 +25.9 82 +44 +49 опасность
перегрева
1012.0 999.8 +25.4 2
03 17.11 З 4 10 км 5/4 540 м
[Cu med, cong Ci fib]
+31.6 +26.9 76 +49 +58 опасность
перегрева
1011.1 998.9
06 17.11 З 7 10 км 6/6 500 м
[Cb calv Ci sp]
+31.2 +27.0 78 +49 +51 опасность
перегрева
1008.5 996.3
09 17.11 СЗ 6 10 км 8/8 500 м
[Cu med, cong As trans Ci sp]
+30.0 +26.4 81 +46 +46 опасность
перегрева
1009.2 997.1
12 17.11 штиль 0 8000 м 6/4 500 м
[Cu hum Ci fib]
+28.2 +26.6 91 +44 +44 опасность
перегрева
1011.1 998.9 +32.8
15 17.11 штиль 0 8000 м 6/4 500 м
[Cu hum Ci fib]
+27.8 +26.2 91 +42 +42 опасность
перегрева
1011.2 999.0
18 17.11 ЮВ 1 8000 м 5/3 500 м
[Cu hum Ci fib]
+25.3 +24.1 93 +35 +35 очень
душно
1010.1 997.9

 

Местоположение метеостанции Kupang (Индонезия): широта -10.16 долгота 123.66 высота над уровнем моря 108 м.

В архиве по умолчанию представлена погода в Kupang за последнюю неделю. Архивные данные за месяц целиком и за предыдущие месяцы, начиная с января 2011 года, Вы можете получить, выбрав интересующий диапазон дат из раскрывающегося списка и нажав кнопку "Ввод!".


*Определитесь, кто Вы:
робот инопланетянин человек

Внимание! Время в таблицах - всемирное. Для получения местного времени необходимо прибавить поправку, которая в Kupang равна 8 ч.

Смотрите также архив погоды в соседних городах и на ближайших метеорологических станциях:

Погода в Rote (Индонезия) (90 км)
Погода в Sabu (Индонезия) (204 км)
Погода в Larantuka (Индонезия) (223 км)
Погода в Maumere (Индонезия) (230 км)
Погода в Alor (Индонезия) (237 км)
Погода в Umbu Mehang Kunda Airport (Индонезия) (369 км)
Погода в Ruteng (Индонезия) (391 км)
Погода в Browse Island (Западная Австралия, Австралия) (440 км)
Погода в Troughton Island (Западная Австралия, Австралия) (483 км)
Погода в Truscott (Западная Австралия, Австралия) (527 км)

Пояснения к столбцам:

Ветер - указаны скорость ветра в м/с - средняя за 10 мин, порывы в срок и между сроками (в фигурных скобках) и направление, откуда дует ветер: С - северный, СВ - северо-восточный, В - восточный, ЮВ - юго-восточный, Ю - южный, ЮЗ - юго-западный, З - западный, СЗ - северо-западный.
Видимость - горизонтальная дальность видимости в метрах или километрах. При видимости от 1 до 10 км при отсутствии осадков обычно наблюдается дымка, при ухудшении видимости до 1 км и менее - туман. В сухую погоду видимость может ухудшаться дымом, пылью или мглою.
Явления - указаны атмосферные явления, наблюдавшиеся в срок или в последний час перед сроком; фигурными скобками обозначены явления, наблюдавшиеся между сроками (за 1-3 часа до срока); квадратными скобками обозначены град или гололедные отложения с указанием их диаметра в мм.
Облачность - указаны через наклонную черту общая и нижняя облачность в баллах и высота нижней границы облаков в метрах; квадратными скобками обозначены формы облаков: Ci - перистые, Cs - перисто-слоистые, Cc - перисто-кучевые, Ac - высококучевые, As - высокослоистые, Sc - слоисто-кучевые, Ns - слоисто-дождевые, Cu - кучевые, Cb - кучево-дождевые. Подробнее классификацию облаков см. в Атласе облаков (PDF).
T - Температура воздуха - температура, измеренная на высоте 2 м над землей.
Td - Температура точки росы - температура, при понижении до которой содержащийся в воздухе водяной пар достигнет насыщения.
f - Относительная влажность воздуха - влажноcть воздуха, измеренная на высоте 2 м над землей.
Te - Эффективная температура - температура, которую ощущает одетый по сезону человек в тени. Характеристика душности погоды. При расчете учитывается влияние влажности воздуха и скорости ветра на теплоощущения человека.
Tes - Эффективная температура на солнце - температура, которую ощущает человек, с поправкой на солнечный нагрев. Характеристика знойности погоды. Зависит от высоты солнца над горизонтом, облачности и скорости ветра. Ночью, в пасмурную погоду, а также при ветре 12 м/с и более поправка равна нулю.
P - Атмосферное давление - приведенное к уровню моря атмосферное давление.
Po - Атмосферное давление - измеренное на уровне метеостанции атмосферное давление.
Tmin - Минимальная температура - минимум температуры воздуха на высоте 2 м над землей.
Tmax - Максимальная температура - максимум температуры воздуха на высоте 2 м над землей.
R - Количество осадков - Количество выпавших осадков за период времени, мм. При наведении курсора мыши на число - период времени, за который выпало указанное количество осадков.
R24 - Количество осадков - Количество выпавших осадков за 24 часа, мм.
S - Снежный покров - Высота снежного покрова, см. При наведении курсора мыши на число - состояние снежного покрова и степень покрытия местности в баллах.